Temperature
27 28 28 28 28 28 28 28 27 27 26 26 25 24 24 23 22 22 21 20 20 19 18 17 17 16 15 15 15 15 15 15 15 14 14 14 14 14 14 14 14 14 14 13
27 28 29 29 28 28 27 27 27 26 26 25 25 24 24 23 22 22 21 20 20 19 18 17 16 16 15 15 15 15 15 15 14 14 14 14 14 14 14 14 14 13 13 13
28 28 28 27 27 27 27 27 27 26 25 25 25 24 24 23 22 21 21 20 19 19 18 17 16 16 16 15 15 15 14 14 14 14 14 14 14 14 14 13 13 13 13 13
28 28 27 27 27 27 27 27 27 26 26 26 25 25 24 24 23 22 21 20 19 19 18 17 16 16 15 15 15 14 14 14 14 14 14 13 13 14 13 13 13 13 13 13
28 28 27 27 27 27 27 27 26 26 26 26 26 25 25 24 23 23 22 20 19 18 18 17 17 16 15 15 15 14 14 14 14 14 13 13 13 13 13 13 13 13 13 13
28 28 27 27 27 26 26 26 26 26 27 25 25 25 24 24 23 23 22 20 19 19 18 17 17 16 15 15 14 14 14 14 14 13 13 13 13 13 13 13 13 13 13 13
27 27 27 27 26 26 26 26 26 26 25 25 25 24 24 23 23 23 22 20 19 18 18 17 16 15 15 15 14 14 14 14 13 13 13 13 13 13 13 13 13 13 13 13
27 27 26 26 26 26 26 26 25 25 25 26 24 24 24 23 22 21 21 20 19 18 18 17 16 15 15 14 14 14 14 13 13 13 13 13 13 13 13 13 12 12 12 12
26 26 26 26 26 26 26 26 26 25 25 24 25 24 23 22 22 21 21 20 19 18 17 17 16 15 15 14 14 14 13 13 13 13 13 13 13 13 12 12 12 12 12 12
26 25 26 26 26 26 26 26 25 25 24 24 24 24 24 22 22 22 21 20 19 18 17 16 16 15 14 14 14 14 13 13 13 13 13 13 13 12 12 12 12 12 12 12
26 25 25 25 25 25 25 25 25 25 25 24 23 23 23 22 22 21 21 20 19 18 17 16 16 15 15 14 14 14 13 13 13 13 13 12 12 12 12 12 12 12 12 12
25 25 25 25 25 25 25 25 24 24 24 24 23 23 23 22 22 21 21 19 19 18 17 16 16 15 15 14 14 14 13 13 13 13 13 12 12 12 12 12 12 12 12 12
24 24 24 25 24 24 24 24 24 24 23 23 23 23 22 22 21 21 20 19 18 17 17 16 16 15 15 14 14 14 14 13 13 13 13 12 12 12 12 12 12 12 12 12
24 24 24 24 24 24 24 24 24 23 23 23 23 23 22 22 21 21 19 19 18 17 17 16 16 15 14 14 14 14 14 13 13 13 13 12 12 12 12 12 12 12 12 12
24 24 24 24 24 24 24 24 24 23 23 23 23 22 22 21 21 20 19 18 18 17 17 16 15 15 14 14 14 14 13 13 13 13 13 12 12 12 12 12 12 12 12 12
23 23 23 23 24 24 23 23 23 23 23 23 22 22 22 21 20 20 19 18 17 17 16 16 15 14 14 14 14 13 13 13 13 13 12 12 12 12 12 12 12 12 12 12
23 22 23 23 24 23 23 23 23 23 23 22 22 21 21 21 20 19 18 18 17 17 16 15 15 14 14 14 13 13 13 13 13 12 12 12 12 12 12 12 12 12 12 12
22 22 23 23 23 21 23 23 23 22 22 22 21 21 21 20 19 19 18 18 17 16 16 15 15 14 14 14 13 13 13 13 13 13 12 12 12 12 12 12 12 12 12 12
22 22 23 23 23 22 22 22 22 22 21 22 21 21 20 19 19 19 17 17 16 16 15 15 14 14 14 13 13 13 13 13 13 13 12 12 12 12 12 12 12 12 12 11
21 21 22 22 22 21 22 22 22 22 21 21 20 20 20 19 20 20 17 16 16 15 15 14 14 14 14 13 13 13 13 13 13 12 12 12 12 12 12 12 12 12 12 11
21 21 22 22 22 22 22 21 21 21 20 20 19 19 19 19 19 18 17 16 16 15 15 14 14 14 14 13 13 13 13 13 12 12 12 12 12 12 12 12 12 12 12 12
22 22 22 22 21 21 21 21 20 20 19 19 18 18 18 17 17 17 17 16 15 15 14 14 14 14 13 13 13 13 13 13 12 12 12 12 12 12 12 12 12 12 12 12
21 21 22 22 21 20 19 19 19 18 18 18 18 17 17 17 17 16 16 16 15 15 14 14 14 14 13 13 13 13 12 12 12 12 12 12 12 12 12 12 12 12 12 12
20 19 20 20 20 20 19 18 18 18 18 17 17 17 17 16 16 16 15 15 15 14 14 14 14 13 13 13 13 12 12 12 12 12 12 12 12 12 12 12 12 12 12 12
20 19 20 19 19 19 18 18 17 17 17 16 16 16 16 16 15 15 15 15 14 14 14 13 13 13 13 13 12 12 12 12 12 12 12 12 12 12 12 12 12 12 12 12
19 19 19 19 19 18 18 17 17 16 16 16 16 16 15 15 15 15 15 14 14 14 13 13 13 13 13 13 12 12 12 12 12 12 12 12 12 12 12 12 12 12 12 12
Wind_Speed
7 8 7 6 6 6 5 6 5 2 1 3 3 4 4 4 4 3 2 2 1 1 2 2 1 1 1 1 0 0 1 1 1 1 1 1 1 2 2 2 2 3 3 3
8 8 5 5 5 6 6 7 4 2 2 3 3 3 3 3 3 3 2 2 1 1 1 1 1 1 0 1 0 1 1 1 2 1 2 2 2 3 3 2 2 3 3 4
8 3 2 5 6 6 7 7 6 4 3 5 5 6 6 5 4 3 2 2 1 1 1 1 0 1 0 0 0 1 1 2 2 2 2 1 2 3 2 2 3 3 4 4
6 4 5 6 5 6 6 4 6 6 7 5 7 6 5 6 5 4 3 2 2 1 2 1 1 1 1 1 1 0 1 1 2 2 2 2 3 3 3 3 3 3 4 4
5 5 6 6 4 5 4 3 5 7 8 7 7 7 3 5 4 4 3 2 2 2 2 2 2 1 1 1 1 0 1 1 1 2 2 3 3 2 3 3 3 3 3 3
4 3 4 3 2 3 2 3 5 7 8 8 5 6 3 2 2 2 2 1 2 2 2 2 1 1 1 1 1 0 1 1 1 2 2 3 3 3 3 4 3 3 2 2
5 5 3 2 3 4 5 6 6 7 7 4 2 4 1 2 1 1 1 0 1 1 2 1 1 1 1 1 1 1 1 2 2 2 2 3 3 3 4 4 3 3 3 2
5 5 4 2 3 4 5 7 6 7 6 3 2 3 1 2 1 0 0 1 1 1 1 1 1 1 1 1 1 1 1 2 2 2 2 2 3 3 2 3 3 3 3 2
3 3 3 2 2 4 5 5 5 7 8 7 3 1 2 2 1 1 1 1 1 0 0 1 1 1 1 1 1 1 1 2 2 2 2 3 3 3 3 2 3 3 3 3
3 4 3 3 4 1 4 3 4 6 6 7 4 4 2 0 1 1 1 1 0 0 0 1 1 1 1 1 1 1 2 2 3 2 2 2 2 2 3 3 3 3 3 3
2 4 4 4 3 2 3 4 5 6 6 7 6 2 3 1 2 2 2 1 1 0 1 1 1 1 0 0 0 1 2 2 2 2 2 3 3 3 3 3 3 3 3 3
2 3 4 4 1 1 3 4 5 6 5 6 7 3 4 2 1 1 1 1 1 0 1 1 1 0 0 0 1 1 1 2 2 2 3 3 3 3 3 3 3 2 2 3
2 3 5 6 5 4 2 3 4 5 5 6 7 2 3 1 1 1 1 1 1 1 1 0 0 1 1 1 1 1 1 2 2 2 2 2 3 3 3 2 2 2 2 3
2 4 5 5 3 2 3 3 4 6 6 6 6 5 2 2 2 1 1 1 1 1 1 1 0 1 1 1 1 2 2 2 2 2 2 2 2 3 3 2 2 2 2 3
3 5 5 4 4 4 5 5 5 6 7 8 7 6 5 4 4 3 2 2 2 1 1 1 1 1 2 2 2 2 2 2 2 2 3 2 2 2 2 2 2 2 2 2
3 4 4 6 5 5 6 6 6 6 6 7 7 5 3 3 3 2 2 2 2 1 1 1 1 1 2 2 2 2 2 2 2 3 3 2 2 2 2 2 2 2 2 2
4 5 6 6 5 6 7 5 4 4 4 4 5 3 2 2 2 2 2 3 3 2 2 2 2 2 2 3 2 3 3 3 3 3 3 2 2 2 2 2 2 2 2 2
5 6 5 6 6 7 0 2 1 2 2 2 2 2 2 3 3 2 2 3 3 3 2 2 2 2 2 2 2 2 2 2 2 3 3 3 3 3 3 3 3 3 3 3
6 6 5 6 7 6 3 3 3 3 1 0 2 2 1 2 2 2 1 2 4 3 3 3 2 2 2 2 2 2 2 2 3 3 3 4 3 4 4 4 3 3 3 3
6 7 7 7 7 5 1 3 2 4 3 1 1 2 2 2 3 1 1 2 3 3 3 2 2 2 2 2 2 3 3 3 4 4 4 4 4 4 5 5 4 4 3 4
6 6 9 9 8 3 2 3 3 4 1 2 1 2 3 3 5 4 1 2 2 2 2 3 3 2 2 2 3 3 4 4 4 4 4 4 4 4 5 4 4 4 4 4
6 6 7 7 7 3 4 3 2 2 3 1 2 2 3 4 4 3 2 2 2 2 2 3 3 3 2 2 3 4 5 5 4 4 5 4 4 4 3 3 4 4 4 4
4 4 4 3 1 5 4 2 1 1 1 2 3 3 4 4 4 4 3 2 2 3 2 3 3 3 3 3 4 5 5 4 4 5 5 5 4 4 4 4 4 4 5 4
3 2 3 3 2 2 2 1 1 1 2 3 3 4 4 4 4 4 3 3 3 3 3 3 4 4 4 4 5 5 5 4 4 5 5 4 4 4 4 4 5 4 4 4
3 3 4 5 3 2 2 1 3 3 3 3 4 4 4 4 5 5 4 3 3 3 3 4 4 4 5 4 5 5 4 4 4 5 5 5 5 4 4 4 4 5 4 3
5 5 5 4 2 3 3 3 3 4 4 4 4 4 4 4 4 4 4 3 3 3 3 4 5 5 5 4 5 5 4 4 4 5 5 5 5 4 4 4 4 3 4 1
Wind_Direction
198 225 227 228 243 279 271 265 266 262 171 240 224 197 179 168 177 182 186 182 177 174 144 145 165 168 151 137 120 231 278 292 270 251 252 263 261 260 256 253 245 247 254 251
214 228 235 235 240 251 245 254 251 200 184 243 217 212 191 184 192 200 210 204 209 212 154 155 154 144 183 136 81 277 277 286 273 266 268 272 276 269 263 260 242 246 250 252
235 219 200 225 227 234 237 255 256 239 199 204 213 214 203 193 195 196 216 227 218 236 209 170 177 226 301 3 313 295 297 282 283 285 274 273 256 256 268 266 251 247 251 250
231 220 216 226 229 251 250 251 250 226 229 226 226 259 188 191 195 200 213 227 246 245 230 229 235 255 270 286 309 311 277 275 274 257 263 266 273 285 295 279 267 262 251 251
218 219 232 237 249 260 278 262 240 234 247 253 228 261 188 182 215 217 211 215 237 247 239 229 227 240 247 242 260 254 279 280 275 261 254 256 263 281 296 297 284 274 260 255
228 209 241 253 256 242 224 217 220 232 243 249 246 264 241 191 244 223 182 194 228 245 243 237 230 244 273 271 263 298 302 309 289 263 265 255 259 272 280 281 282 279 277 269
205 186 178 207 225 196 230 249 242 233 233 247 157 257 301 87 24 316 292 200 214 236 246 267 297 297 288 249 294 317 292 292 287 273 267 265 266 266 263 273 273 279 282 277
233 201 172 194 254 257 240 256 275 284 285 292 208 255 93 93 98 73 230 165 176 218 241 279 285 276 251 230 246 263 279 288 281 272 269 274 273 273 281 280 283 275 281 288
255 218 150 173 243 259 242 253 292 279 277 276 257 236 169 165 197 214 212 189 187 207 277 293 306 311 298 253 263 270 272 282 275 265 257 257 260 277 296 288 275 285 289 286
258 242 201 176 206 192 280 266 254 265 278 277 260 255 281 247 295 279 263 238 164 84 22 351 331 319 307 278 281 307 291 282 280 278 274 265 264 270 281 286 294 294 294 295
257 239 203 194 226 251 219 232 263 271 283 287 289 314 45 4 314 301 276 232 186 143 340 328 318 334 341 5 308 280 278 273 275 280 276 277 274 270 272 277 284 290 294 299
237 255 234 204 157 282 260 269 261 268 271 268 284 300 83 36 352 303 275 199 173 191 268 289 340 10 1 333 301 287 277 271 273 266 258 263 270 268 269 276 286 293 295 295
197 235 239 206 185 180 216 236 256 266 273 272 276 288 97 79 3 315 259 173 168 208 247 303 26 0 350 329 301 284 266 277 285 276 267 269 266 265 268 281 289 296 293 292
229 242 259 274 301 277 246 238 244 257 267 275 281 296 292 300 309 293 235 207 203 225 245 273 342 349 341 319 309 294 285 284 282 285 282 274 269 266 264 276 281 277 278 284
229 238 239 255 260 256 261 261 256 258 272 277 290 294 317 320 297 282 234 212 222 236 275 306 315 320 306 296 295 300 290 280 285 279 275 267 263 258 254 265 265 268 273 279
220 243 239 245 238 246 257 255 256 260 265 271 279 286 332 320 291 253 223 216 229 252 271 287 277 281 280 282 280 286 282 269 270 272 273 265 255 250 247 250 252 259 270 280
209 224 243 252 243 254 253 250 245 242 248 265 278 299 321 309 287 238 215 221 237 257 264 261 261 263 268 273 268 272 263 264 263 265 268 256 245 237 244 256 263 266 269 274
221 233 245 254 245 252 202 101 214 226 238 253 270 297 293 304 287 251 240 252 260 267 272 266 259 266 275 279 272 277 259 264 264 267 268 266 255 250 257 263 266 270 265 263
221 225 241 247 250 255 188 176 200 220 232 272 279 300 311 325 263 228 234 274 271 271 264 259 260 257 269 276 273 264 270 266 268 275 280 278 271 263 260 264 270 272 264 260
196 219 237 241 256 259 132 129 185 231 220 93 310 295 300 284 271 353 36 295 282 266 251 259 263 261 256 270 264 255 264 270 280 288 287 284 278 268 265 266 266 263 261 262
197 211 230 242 247 245 90 130 194 237 33 61 342 310 291 278 310 341 312 280 269 250 237 240 249 256 255 259 260 264 267 273 283 287 281 276 273 262 259 260 260 255 253 264
234 231 227 238 244 228 115 149 213 16 58 21 333 315 299 295 310 314 295 276 254 238 227 230 244 259 261 253 258 268 273 279 282 281 275 273 270 265 257 254 258 256 257 252
244 276 276 267 287 82 121 130 100 56 297 310 308 309 294 293 301 305 290 279 263 250 230 229 242 255 259 254 259 272 285 286 281 276 273 274 272 268 265 259 257 255 251 262
215 252 238 230 197 165 163 177 231 279 289 302 311 308 296 291 298 307 297 282 269 255 242 235 248 257 259 261 264 272 278 278 275 274 273 268 264 260 262 266 263 265 270 276
255 220 233 237 240 247 226 267 299 296 290 295 301 300 296 289 289 293 290 281 271 259 258 251 253 261 266 267 268 273 277 270 271 275 271 264 258 259 264 262 270 270 282 298
240 242 248 263 268 276 281 305 308 299 295 298 299 297 296 291 290 292 292 290 278 273 273 268 260 262 264 263 268 271 274 264 258 259 261 265 266 261 261 263 258 231 251 186
Height
1495 1492 1487 1485 1484 1484 1485 1487 1489 1490 1492 1494 1495 1498 1500 1504 1506 1507 1508 1509 1510 1511 1513 1513 1513 1513 1512 1511 1510 1510 1510 1509 1508 1509 1508 1508 1508 1507 1506 1506 1505 1505 1505 1505
1490 1487 1483 1483 1484 1486 1486 1489 1489 1490 1493 1494 1495 1497 1498 1502 1503 1506 1507 1508 1509 1510 1511 1512 1512 1511 1511 1510 1509 1509 1508 1508 1507 1507 1506 1506 1505 1505 1505 1504 1503 1503 1502 1502
1485 1482 1484 1485 1485 1486 1486 1487 1487 1490 1492 1493 1495 1498 1497 1499 1502 1504 1506 1507 1507 1508 1509 1510 1510 1509 1509 1509 1508 1507 1506 1506 1505 1505 1505 1504 1504 1503 1503 1502 1502 1501 1500 1500
1481 1482 1484 1484 1484 1485 1486 1483 1485 1488 1491 1489 1492 1496 1494 1495 1498 1501 1503 1505 1506 1507 1508 1508 1508 1508 1508 1507 1507 1506 1505 1504 1503 1502 1502 1502 1502 1502 1501 1500 1500 1499 1498 1498
1481 1481 1483 1484 1483 1484 1483 1482 1484 1485 1486 1488 1488 1492 1490 1492 1495 1497 1500 1503 1505 1506 1506 1507 1507 1507 1506 1506 1505 1504 1503 1502 1501 1501 1501 1500 1501 1500 1499 1498 1497 1497 1496 1496
1480 1482 1482 1482 1483 1484 1483 1484 1484 1483 1481 1493 1486 1491 1492 1489 1492 1494 1498 1501 1503 1504 1505 1505 1506 1506 1505 1504 1504 1503 1501 1500 1500 1499 1499 1499 1498 1498 1498 1497 1496 1496 1495 1494
1481 1480 1482 1484 1484 1484 1483 1486 1490 1491 1490 1488 1485 1490 1492 1489 1491 1494 1496 1500 1502 1503 1503 1503 1504 1504 1503 1503 1502 1501 1500 1499 1498 1498 1498 1497 1497 1496 1496 1496 1495 1494 1494 1493
1483 1483 1481 1482 1483 1484 1482 1483 1494 1499 1491 1485 1487 1490 1489 1490 1494 1496 1497 1499 1501 1501 1502 1502 1502 1502 1501 1501 1500 1500 1499 1498 1497 1497 1496 1496 1495 1495 1495 1494 1493 1493 1492 1491
1482 1483 1480 1482 1482 1481 1481 1480 1479 1486 1485 1491 1487 1488 1490 1491 1493 1495 1496 1498 1499 1500 1501 1501 1501 1501 1500 1499 1499 1498 1497 1496 1496 1495 1495 1494 1494 1493 1493 1492 1491 1491 1490 1490
1479 1486 1480 1481 1482 1482 1480 1480 1483 1486 1496 1495 1488 1488 1487 1489 1491 1492 1494 1496 1498 1499 1500 1500 1500 1499 1498 1498 1497 1497 1496 1495 1495 1494 1494 1494 1493 1492 1491 1491 1490 1489 1488 1488
1480 1485 1483 1481 1483 1482 1484 1484 1483 1481 1484 1493 1495 1492 1484 1487 1490 1492 1493 1495 1497 1498 1499 1499 1498 1498 1497 1497 1496 1495 1495 1494 1494 1493 1493 1492 1491 1491 1490 1490 1489 1488 1487 1486
1482 1481 1483 1481 1480 1481 1480 1482 1484 1490 1489 1487 1491 1493 1485 1488 1490 1492 1493 1495 1497 1498 1498 1498 1498 1497 1496 1495 1495 1494 1494 1493 1493 1492 1491 1490 1490 1489 1489 1488 1487 1486 1485 1485
1482 1485 1488 1485 1486 1483 1482 1482 1483 1484 1487 1487 1490 1491 1486 1488 1490 1492 1493 1495 1496 1497 1497 1497 1496 1496 1495 1494 1493 1493 1492 1492 1492 1491 1490 1489 1488 1488 1487 1487 1486 1485 1484 1483
1483 1482 1485 1489 1484 1480 1483 1483 1482 1484 1485 1486 1486 1485 1485 1486 1488 1491 1493 1494 1495 1496 1496 1495 1495 1494 1494 1493 1492 1491 1491 1491 1490 1489 1488 1487 1486 1486 1485 1485 1484 1483 1483 1482
1482 1481 1480 1479 1478 1479 1481 1481 1482 1483 1484 1486 1484 1484 1484 1486 1488 1490 1492 1493 1494 1494 1494 1494 1493 1493 1493 1492 1491 1490 1490 1489 1488 1488 1487 1486 1485 1485 1484 1484 1483 1482 1482 1481
1482 1482 1481 1481 1478 1478 1480 1479 1480 1481 1482 1482 1483 1484 1485 1487 1488 1489 1491 1492 1492 1493 1493 1492 1492 1492 1491 1490 1490 1489 1488 1488 1487 1486 1486 1485 1484 1483 1483 1483 1482 1481 1480 1480
1479 1483 1484 1482 1477 1479 1483 1477 1478 1480 1480 1482 1484 1485 1485 1487 1487 1488 1490 1491 1491 1492 1492 1491 1491 1490 1490 1489 1488 1487 1486 1486 1486 1485 1485 1484 1483 1482 1482 1482 1481 1480 1479 1478
1481 1481 1480 1478 1482 1491 1480 1475 1477 1479 1480 1481 1483 1484 1485 1487 1488 1488 1489 1490 1490 1491 1490 1490 1490 1489 1488 1487 1487 1486 1486 1485 1485 1484 1484 1483 1482 1482 1481 1480 1480 1479 1478 1477
1480 1480 1479 1478 1480 1479 1476 1477 1478 1480 1482 1482 1483 1484 1485 1486 1486 1486 1488 1489 1489 1489 1489 1489 1488 1488 1487 1486 1486 1485 1485 1484 1484 1483 1483 1482 1481 1480 1480 1479 1478 1478 1477 1476
1480 1479 1478 1477 1483 1484 1478 1476 1478 1480 1482 1482 1484 1484 1485 1485 1482 1483 1486 1487 1488 1488 1487 1487 1486 1486 1485 1485 1484 1484 1484 1483 1482 1482 1481 1480 1479 1479 1478 1477 1477 1476 1475 1474
1477 1477 1476 1475 1478 1474 1475 1477 1479 1484 1484 1483 1484 1484 1485 1484 1484 1485 1485 1485 1486 1486 1485 1485 1485 1484 1484 1483 1483 1482 1482 1482 1481 1480 1479 1478 1477 1477 1476 1475 1475 1474 1474 1473
1471 1471 1474 1473 1477 1479 1476 1478 1480 1482 1483 1484 1484 1485 1485 1485 1484 1484 1484 1484 1484 1483 1483 1483 1483 1483 1482 1481 1481 1480 1480 1480 1479 1478 1478 1477 1476 1475 1475 1474 1473 1472 1472 1471
1471 1470 1468 1470 1474 1477 1478 1479 1482 1483 1483 1484 1484 1484 1484 1483 1483 1483 1482 1482 1482 1482 1482 1481 1481 1481 1480 1480 1479 1479 1478 1477 1477 1476 1476 1475 1474 1473 1473 1472 1472 1471 1470 1470
1472 1475 1473 1473 1474 1476 1478 1480 1482 1482 1483 1483 1483 1483 1482 1482 1482 1481 1481 1480 1480 1480 1480 1480 1479 1479 1478 1478 1477 1477 1476 1475 1475 1474 1474 1473 1472 1472 1471 1470 1470 1469 1469 1468
1472 1473 1472 1473 1475 1477 1477 1479 1481 1481 1481 1481 1481 1481 1481 1480 1480 1479 1478 1478 1478 1477 1477 1477 1477 1476 1476 1476 1475 1475 1474 1473 1473 1472 1472 1471 1471 1470 1469 1468 1468 1467 1466 1465
1472 1472 1472 1471 1475 1476 1478 1478 1479 1479 1479 1479 1479 1479 1479 1478 1477 1477 1476 1476 1475 1475 1474 1474 1474 1474 1473 1473 1473 1472 1472 1471 1470 1470 1470 1469 1469 1468 1467 1466 1466 1464 1464 1463